TimeCST,TemperatureF,Dew PointF,Humidity,Sea Level PressureIn,VisibilityMPH,Wind Direction,Wind SpeedMPH,Gust SpeedMPH,PrecipitationIn,Events,Conditions,WindDirDegrees,DateUTC
12:56 AM,55.0,54.0,96,30.01,10.0,Calm,Calm,-,N/A,,Clear,0,2013-11-15 06:56:00
1:56 AM,53.1,51.1,93,30.00,10.0,West,4.6,-,N/A,,Clear,270,2013-11-15 07:56:00
2:56 AM,54.0,52.0,93,29.99,10.0,WNW,3.5,-,N/A,,Clear,290,2013-11-15 08:56:00
3:56 AM,51.1,48.9,92,29.98,9.0,NNW,5.8,-,N/A,,Clear,330,2013-11-15 09:56:00
4:56 AM,54.0,53.1,97,29.98,10.0,NNE,3.5,-,N/A,,Scattered Clouds,20,2013-11-15 10:56:00
5:56 AM,53.1,52.0,96,29.99,10.0,NW,4.6,-,N/A,,Mostly Cloudy,320,2013-11-15 11:56:00
6:09 AM,55.0,54.0,96,30.00,10.0,Calm,Calm,-,N/A,,Mostly Cloudy,0,2013-11-15 12:09:00
6:25 AM,54.0,52.0,93,30.00,10.0,Calm,Calm,-,N/A,,Mostly Cloudy,0,2013-11-15 12:25:00
6:30 AM,53.1,51.1,93,30.00,10.0,Calm,Calm,-,N/A,,Scattered Clouds,0,2013-11-15 12:30:00
6:56 AM,51.1,50.0,96,30.00,8.0,North,3.5,-,N/A,,Scattered Clouds,350,2013-11-15 12:56:00
7:56 AM,57.0,54.0,89,30.00,10.0,Calm,Calm,-,N/A,,Partly Cloudy,0,2013-11-15 13:56:00
8:56 AM,66.0,57.9,75,30.01,10.0,NE,8.1,-,N/A,,Partly Cloudy,40,2013-11-15 14:56:00
9:56 AM,70.0,59.0,68,30.01,10.0,Calm,Calm,-,N/A,,Partly Cloudy,0,2013-11-15 15:56:00
10:56 AM,75.0,61.0,62,30.00,10.0,SSW,5.8,-,N/A,,Partly Cloudy,210,2013-11-15 16:56:00
11:56 AM,77.0,62.1,60,29.97,10.0,SSE,8.1,-,N/A,,Partly Cloudy,150,2013-11-15 17:56:00
12:56 PM,79.0,60.1,52,29.93,10.0,South,10.4,-,N/A,,Scattered Clouds,180,2013-11-15 18:56:00
1:56 PM,82.0,57.9,44,29.90,10.0,South,11.5,-,N/A,,Scattered Clouds,170,2013-11-15 19:56:00
2:56 PM,81.0,60.1,49,29.88,10.0,SSE,11.5,-,N/A,,Scattered Clouds,160,2013-11-15 20:56:00
3:56 PM,79.0,63.0,58,29.87,10.0,SE,11.5,-,N/A,,Scattered Clouds,140,2013-11-15 21:56:00
4:56 PM,75.0,62.1,64,29.87,10.0,SE,13.8,-,N/A,,Mostly Cloudy,140,2013-11-15 22:56:00
5:56 PM,71.1,64.0,78,29.88,10.0,SE,9.2,-,N/A,,Clear,140,2013-11-15 23:56:00
6:56 PM,68.0,64.0,87,29.90,10.0,SE,6.9,-,N/A,,Clear,130,2013-11-16 00:56:00
7:56 PM,66.0,64.0,93,29.92,10.0,SE,5.8,-,N/A,,Clear,130,2013-11-16 01:56:00
8:56 PM,64.9,64.0,97,29.93,10.0,SE,6.9,-,N/A,,Clear,130,2013-11-16 02:56:00
9:56 PM,66.0,64.9,96,29.93,10.0,SE,6.9,-,N/A,,Clear,140,2013-11-16 03:56:00
10:56 PM,64.0,64.0,100,29.92,10.0,SSE,6.9,-,N/A,,Clear,150,2013-11-16 04:56:00
11:56 PM,64.0,64.0,100,29.91,10.0,South,5.8,-,N/A,,Clear,170,2013-11-16 05:56:00